Hourly Weather Russkoe

Today, 18 April, Sunday

Time Temperature Precipitation Wind Pressure Humidity
00:00 +8°C° 0 mm 3 mps 745 mmHg 91%
01:00 +8°C° 0 mm 3 mps 745 mmHg 91%
02:00 +8°C° 0 mm 3 mps 745 mmHg 91%
03:00 +8°C° 0.2 mm 3 mps 745 mmHg 90%
04:00 +7°C° 0.2 mm 4 mps 745 mmHg 89%
05:00 +6°C° 0.2 mm 5 mps 745 mmHg 87%
06:00 +6°C° 0.1 mm 4 mps 746 mmHg 87%
07:00 +6°C° 0.1 mm 4 mps 746 mmHg 87%
08:00 +6°C° 0.1 mm 4 mps 746 mmHg 87%
09:00 +6°C° 0 mm 4 mps 747 mmHg 85%
10:00 +7°C° 0 mm 3 mps 747 mmHg 83%
11:00 +7°C° 0 mm 3 mps 747 mmHg 81%
12:00 +8°C° 0 mm 3 mps 748 mmHg 79%
13:00 +8°C° 0 mm 3 mps 748 mmHg 78%
14:00 +8°C° 0 mm 3 mps 748 mmHg 77%
15:00 +8°C° 0 mm 3 mps 748 mmHg 80%
16:00 +6°C° 0 mm 4 mps 748 mmHg 83%
17:00 +6°C° 0 mm 4 mps 748 mmHg 86%
18:00 +6°C° 0 mm 4 mps 748 mmHg 87%
19:00 +5°C° 0 mm 3 mps 749 mmHg 88%
20:00 +5°C° 0 mm 3 mps 749 mmHg 89%
21:00 +4°C° 0 mm 3 mps 749 mmHg 91%
22:00 +4°C° 0 mm 3 mps 749 mmHg 92%
23:00 +3°C° 0 mm 3 mps 749 mmHg 94%

Tomorrow, 19 April, Monday

Time Temperature Precipitation Wind Pressure Humidity
00:00 +3°C° 0 mm 3 mps 749 mmHg 92%
01:00 +3°C° 0 mm 3 mps 749 mmHg 91%
02:00 +3°C° 0 mm 3 mps 749 mmHg 90%
03:00 +3°C° 0 mm 3 mps 749 mmHg 90%
04:00 +4°C° 0 mm 3 mps 749 mmHg 91%
05:00 +4°C° 0 mm 3 mps 749 mmHg 92%
06:00 +5°C° 0 mm 3 mps 749 mmHg 90%
07:00 +5°C° 0 mm 4 mps 749 mmHg 88%
08:00 +6°C° 0 mm 4 mps 749 mmHg 87%
09:00 +6°C° 0 mm 4 mps 749 mmHg 83%
10:00 +7°C° 0 mm 4 mps 749 mmHg 80%
11:00 +8°C° 0 mm 4 mps 749 mmHg 77%
12:00 +8°C° 0.1 mm 5 mps 749 mmHg 77%
13:00 +8°C° 0.1 mm 5 mps 749 mmHg 77%
14:00 +8°C° 0.1 mm 5 mps 749 mmHg 77%
15:00 +7°C° 0 mm 5 mps 749 mmHg 79%
16:00 +7°C° 0 mm 5 mps 749 mmHg 81%
17:00 +6°C° 0 mm 5 mps 749 mmHg 83%
18:00 +5°C° 0 mm 5 mps 749 mmHg 86%
19:00 +3°C° 0 mm 5 mps 749 mmHg 88%
20:00 +2°C° 0 mm 5 mps 749 mmHg 91%
21:00 +3°C° 0 mm 4 mps 749 mmHg 91%
22:00 +3°C° 0 mm 4 mps 749 mmHg 92%
23:00 +3°C° 0 mm 3 mps 748 mmHg 93%

Day after tomorrow, 20 April, Tuesday

Time Temperature Precipitation Wind Pressure Humidity
00:00 +3°C° 0 mm 3 mps 748 mmHg 92%
01:00 +3°C° 0 mm 3 mps 748 mmHg 92%
02:00 +3°C° 0 mm 3 mps 748 mmHg 92%
03:00 +2°C° 0.2 mm 3 mps 747 mmHg 94%
04:00 +2°C° 0.2 mm 3 mps 747 mmHg 96%
05:00 +1°C° 0.2 mm 3 mps 746 mmHg 98%
06:00 +1°C° 0.2 mm 3 mps 746 mmHg 98%
07:00 +1°C° 0.2 mm 3 mps 746 mmHg 98%
08:00 +1°C° 0.2 mm 3 mps 746 mmHg 98%
09:00 +1°C° 0.2 mm 3 mps 746 mmHg 98%
10:00 +1°C° 0.2 mm 3 mps 745 mmHg 98%
11:00 +1°C° 0.2 mm 3 mps 745 mmHg 98%
12:00 +2°C° 0.1 mm 3 mps 744 mmHg 98%
13:00 +2°C° 0.1 mm 3 mps 744 mmHg 97%
14:00 +2°C° 0.1 mm 3 mps 743 mmHg 97%
15:00 +2°C° 0 mm 3 mps 743 mmHg 96%
16:00 +3°C° 0 mm 3 mps 742 mmHg 95%
17:00 +3°C° 0 mm 3 mps 742 mmHg 94%
18:00 +3°C° 0.1 mm 4 mps 741 mmHg 95%
19:00 +3°C° 0.1 mm 4 mps 740 mmHg 95%
20:00 +2°C° 0.1 mm 5 mps 740 mmHg 96%
21:00 +2°C° 0.4 mm 5 mps 739 mmHg 96%
22:00 +2°C° 0.4 mm 5 mps 738 mmHg 96%
23:00 +2°C° 0.4 mm 6 mps 737 mmHg 96%

21 April, Wednesday

Time Temperature Precipitation Wind Pressure Humidity
00:00 +1°C° 1 mm 5 mps 737 mmHg 96%
01:00 0°C° 1 mm 5 mps 736 mmHg 97%
02:00 0°C° 1 mm 5 mps 735 mmHg 97%
03:00 -1°C° 0.5 mm 5 mps 735 mmHg 97%
04:00 -1°C° 0.5 mm 5 mps 735 mmHg 97%
05:00 -1°C° 0.5 mm 5 mps 735 mmHg 97%
06:00 0°C° 0.3 mm 5 mps 735 mmHg 97%
07:00 0°C° 0.3 mm 5 mps 735 mmHg 97%
08:00 0°C° 0.3 mm 5 mps 736 mmHg 97%
09:00 +1°C° 0.1 mm 5 mps 736 mmHg 96%
10:00 +1°C° 0.1 mm 6 mps 737 mmHg 95%
11:00 +2°C° 0.1 mm 6 mps 737 mmHg 94%
12:00 +2°C° 0 mm 5 mps 738 mmHg 90%
13:00 +3°C° 0 mm 5 mps 738 mmHg 85%
14:00 +5°C° 0 mm 5 mps 739 mmHg 81%
15:00 +5°C° 0 mm 5 mps 740 mmHg 80%
16:00 +5°C° 0 mm 5 mps 740 mmHg 78%
17:00 +5°C° 0 mm 4 mps 741 mmHg 77%
18:00 +5°C° 0 mm 4 mps 741 mmHg 80%
19:00 +4°C° 0 mm 3 mps 742 mmHg 83%
20:00 +4°C° 0 mm 3 mps 742 mmHg 86%
21:00 +3°C° 0 mm 3 mps 742 mmHg 86%
22:00 +3°C° 0 mm 3 mps 743 mmHg 87%
23:00 +2°C° 0 mm 3 mps 743 mmHg 87%

22 April, Thursday

Time Temperature Precipitation Wind Pressure Humidity
00:00 +2°C° 0 mm 3 mps 743 mmHg 88%
01:00 +2°C° 0 mm 3 mps 744 mmHg 89%
02:00 +2°C° 0 mm 3 mps 744 mmHg 90%
03:00 +2°C° 0 mm 3 mps 744 mmHg 91%
04:00 +2°C° 0 mm 3 mps 744 mmHg 93%
05:00 +3°C° 0 mm 2 mps 745 mmHg 94%
06:00 +4°C° 0 mm 2 mps 745 mmHg 89%
07:00 +6°C° 0 mm 2 mps 745 mmHg 85%
08:00 +8°C° 0 mm 2 mps 746 mmHg 80%
09:00 +9°C° 0.1 mm 3 mps 746 mmHg 74%
10:00 +11°C° 0.1 mm 3 mps 746 mmHg 68%
11:00 +12°C° 0.1 mm 3 mps 746 mmHg 62%
12:00 +13°C° 0.2 mm 3 mps 746 mmHg 58%
13:00 +14°C° 0.2 mm 3 mps 746 mmHg 54%
14:00 +14°C° 0.2 mm 3 mps 746 mmHg 50%
15:00 +14°C° 0 mm 3 mps 746 mmHg 52%
16:00 +15°C° 0 mm 2 mps 746 mmHg 55%
17:00 +14°C° 0 mm 2 mps 746 mmHg 58%
18:00 +13°C° 0 mm 2 mps 746 mmHg 63%
19:00 +12°C° 0 mm 2 mps 747 mmHg 68%
20:00 +10°C° 0 mm 2 mps 747 mmHg 73%
21:00 +9°C° 0 mm 2 mps 747 mmHg 77%
22:00 +9°C° 0 mm 2 mps 747 mmHg 80%
23:00 +8°C° 0 mm 3 mps 747 mmHg 84%

23 April, Friday

Time Temperature Precipitation Wind Pressure Humidity
00:00 +7°C° 0 mm 3 mps 747 mmHg 86%
01:00 +7°C° 0 mm 3 mps 746 mmHg 89%
02:00 +7°C° 0 mm 3 mps 746 mmHg 91%
03:00 +5°C° 0 mm 3 mps 746 mmHg 92%
04:00 +5°C° 0 mm 3 mps 746 mmHg 92%
05:00 +5°C° 0 mm 3 mps 746 mmHg 93%
06:00 +8°C° 0.1 mm 3 mps 746 mmHg 87%
07:00 +10°C° 0.1 mm 4 mps 746 mmHg 82%
08:00 +11°C° 0.1 mm 4 mps 746 mmHg 76%
09:00 +13°C° 0.1 mm 4 mps 746 mmHg 70%
10:00 +14°C° 0.1 mm 4 mps 746 mmHg 63%
11:00 +15°C° 0.1 mm 5 mps 746 mmHg 57%
12:00 +16°C° 0.2 mm 5 mps 746 mmHg 53%
13:00 +16°C° 0.2 mm 5 mps 746 mmHg 50%
14:00 +17°C° 0.2 mm 5 mps 745 mmHg 46%
15:00 +16°C° 0.5 mm 5 mps 746 mmHg 54%
16:00 +15°C° 0.5 mm 5 mps 746 mmHg 62%
17:00 +13°C° 0.5 mm 5 mps 746 mmHg 69%
18:00 +12°C° 0.3 mm 4 mps 746 mmHg 75%
19:00 +10°C° 0.3 mm 4 mps 747 mmHg 80%
20:00 +8°C° 0.3 mm 3 mps 747 mmHg 85%
21:00 +8°C° 0 mm 3 mps 747 mmHg 87%
22:00 +7°C° 0 mm 3 mps 747 mmHg 89%
23:00 +7°C° 0 mm 3 mps 747 mmHg 91%
Show more